Temperature
8 7 7 8 8 9 9 9 9 10 10 10 9 10 10 11 11 10 11 12 12 13 13 13 13 12 12 12 11 11 11 11 11 11 11 11 11 10 10 10 10 10 10 10
6 6 7 8 9 9 9 9 9 9 10 10 9 9 10 10 10 11 11 12 12 13 13 12 12 12 12 12 11 11 11 11 11 11 11 10 10 10 10 10 10 10 9 9
6 7 8 9 8 8 8 8 8 9 10 10 9 9 9 9 10 11 12 12 13 13 13 12 12 12 12 12 11 11 11 11 10 10 10 10 10 10 9 9 9 9 9 9
6 7 8 8 8 8 8 9 9 9 8 7 8 7 8 9 9 9 10 11 12 12 13 12 12 12 12 12 11 11 11 10 10 10 10 10 10 9 9 9 9 9 9 9
6 7 8 8 8 8 8 9 9 8 7 7 7 7 7 8 8 9 9 11 12 12 12 12 12 12 12 11 11 11 10 10 10 10 10 9 9 9 9 9 9 8 8 8
6 7 7 8 8 9 8 8 7 6 6 6 6 6 7 7 9 9 9 10 11 11 12 12 12 12 11 11 11 10 10 10 10 9 9 9 9 9 8 8 8 8 8 8
5 6 7 8 7 8 7 7 6 5 5 5 6 6 7 8 8 9 9 10 11 11 11 11 11 11 11 11 10 10 10 10 9 9 9 9 8 8 8 8 8 8 8 8
4 4 6 6 7 6 6 6 5 5 5 5 6 6 7 7 8 9 9 10 10 10 11 11 11 11 11 10 10 10 9 9 9 9 8 8 8 8 8 8 7 7 7 7
3 4 5 6 6 6 6 6 6 5 5 5 5 6 7 7 7 7 8 8 8 9 10 10 10 10 10 10 10 10 9 9 9 8 8 8 8 7 7 7 7 7 7 6
3 3 4 5 6 6 6 5 5 5 5 6 6 6 6 7 7 7 6 7 8 8 9 9 9 9 9 10 9 9 9 9 8 8 8 7 7 7 7 7 6 6 6 6
3 2 3 4 4 4 5 5 5 4 4 5 6 6 7 7 7 6 6 7 8 8 8 9 9 9 9 9 9 8 8 8 8 8 7 7 7 6 6 6 6 6 6 6
2 1 1 2 3 4 4 4 4 4 4 4 4 6 7 5 5 5 5 6 7 7 8 8 8 8 8 8 8 8 8 8 7 7 7 7 6 6 6 6 6 5 5 5
2 1 1 2 3 3 3 3 3 3 3 3 4 6 6 5 5 5 5 6 6 7 7 7 7 7 7 7 7 7 7 7 7 6 6 6 6 5 5 5 5 5 5 5
2 1 1 2 2 2 2 2 3 3 3 3 4 5 5 5 4 4 5 5 6 6 7 7 7 7 7 7 7 6 6 6 6 6 6 5 5 5 5 5 4 4 4 4
1 0 1 2 2 2 2 2 2 3 3 4 4 4 5 4 4 4 4 5 5 5 6 6 6 6 6 6 6 6 6 6 5 5 5 5 5 4 4 4 4 4 4 4
-0 0 1 1 2 2 2 2 2 3 3 4 4 4 4 4 4 3 4 4 4 5 5 5 6 6 6 6 6 5 5 5 5 5 5 4 4 4 4 3 3 3 3 3
-1 -1 0 1 2 2 2 2 2 2 2 3 4 4 3 3 3 3 3 4 4 4 5 5 5 5 5 5 5 5 5 5 4 4 4 4 3 3 3 3 3 3 3 3
-1 -1 -1 -0 1 1 2 2 2 2 2 2 2 3 3 3 3 3 3 3 4 4 4 5 5 5 5 5 5 4 4 4 4 4 3 3 3 3 3 3 3 3 2 2
-1 -1 -1 -1 -0 1 2 1 1 1 1 1 1 2 2 2 2 2 3 3 4 4 4 4 4 4 4 4 4 4 4 3 3 3 3 3 3 3 2 2 2 2 2 2
-1 -2 -1 -1 -0 1 1 1 1 1 1 1 1 1 1 2 1 1 2 3 3 4 4 4 4 4 4 4 4 4 3 3 3 3 3 2 2 2 2 2 2 2 2 2
-1 -1 -1 -1 -1 0 0 0 2 1 1 1 1 1 1 1 1 1 2 2 3 3 3 3 3 3 3 3 3 3 3 3 2 2 2 2 2 2 2 2 1 1 1 1
-2 -2 -2 -1 -1 -0 -1 -0 -0 -0 0 1 1 1 1 1 1 1 1 2 2 2 2 3 3 3 2 3 3 3 3 2 2 2 1 1 1 1 1 1 1 1 1 1
-2 -2 -2 -2 -1 -1 -2 -1 -1 -0 -0 0 1 1 1 0 0 0 0 1 1 1 2 2 2 2 2 2 2 2 2 1 1 1 1 1 0 0 1 1 0 0 0 0
-3 -3 -3 -3 -2 -2 -2 -2 -1 -1 -1 -0 0 0 0 0 -0 -0 -0 0 0 1 1 1 1 1 1 1 1 1 1 1 1 1 0 0 0 -0 -0 -0 -0 -0 -0 -1
-4 -4 -3 -3 -3 -3 -3 -2 -2 -1 -1 -1 -1 -1 -0 -0 -1 -1 -1 -0 -0 -0 -0 -0 0 0 -0 0 0 0 0 0 0 0 -0 -0 -1 -1 -1 -1 -1 -1 -1 -2
-5 -4 -4 -3 -3 -4 -3 -3 -2 -2 -2 -2 -2 -2 -1 -1 -1 -1 -1 -1 -1 -1 -1 -1 -1 -1 -1 -1 -1 -1 -1 -0 -0 -1 -1 -1 -1 -1 -2 -2 -2 -2 -2 -2
Wind_Speed
5 5 12 14 12 6 6 6 5 5 4 6 10 12 12 8 7 9 10 11 12 14 11 11 11 12 11 11 11 11 10 8 7 5 4 4 3 2 1 2 3 3 3 2
3 11 11 7 7 7 6 5 5 3 2 4 6 11 11 10 9 11 13 13 13 11 9 10 11 12 13 13 12 12 11 10 8 6 4 3 3 2 2 1 2 2 3 2
10 7 7 8 9 10 11 9 7 5 1 2 1 7 9 8 8 9 10 11 12 14 14 13 12 13 12 13 14 13 11 10 8 6 4 3 2 2 1 1 1 2 2 2
6 6 7 10 11 11 11 9 8 6 3 4 3 5 8 7 7 9 11 11 12 12 12 13 14 14 14 13 12 12 11 10 8 8 7 7 5 3 3 3 2 2 2 3
7 6 9 12 11 10 6 5 6 5 5 2 3 4 8 4 8 11 11 11 12 12 13 14 15 15 13 12 11 11 10 9 8 8 8 7 4 3 2 1 2 2 2 2
5 4 6 7 6 8 5 4 4 3 3 5 8 7 8 6 10 8 8 8 9 10 11 12 11 11 9 9 9 10 10 9 8 8 8 7 6 4 3 2 3 2 2 2
3 4 3 3 5 4 6 7 3 1 3 8 6 7 9 9 8 9 9 8 7 8 9 10 11 11 10 10 10 10 11 9 8 8 8 7 7 7 7 5 4 3 2 2
4 5 5 3 6 8 8 9 8 8 7 5 4 8 8 6 4 3 4 5 5 7 8 10 11 12 12 11 11 10 10 9 9 9 8 6 6 5 4 5 4 4 4 4
5 5 2 3 3 8 7 7 6 5 2 2 5 6 7 2 2 0 2 3 5 6 7 8 9 10 11 11 10 10 10 8 8 8 7 6 6 5 4 4 3 3 3 3
3 3 3 2 2 1 5 7 5 5 6 5 5 5 5 4 4 2 2 3 4 4 5 6 7 8 9 9 8 8 8 8 8 7 7 6 5 5 4 4 4 3 3 3
1 2 2 0 5 7 5 5 5 5 5 6 5 6 4 6 5 5 4 4 5 5 5 5 6 6 7 6 6 6 6 6 6 6 5 5 4 4 4 4 4 4 3 3
1 2 1 4 3 2 3 6 6 6 5 5 4 5 4 2 3 4 4 3 4 4 4 4 5 6 6 6 6 6 6 6 6 6 5 4 3 3 3 3 3 3 3 3
1 3 1 2 2 1 2 3 5 4 3 4 5 5 3 3 4 4 5 4 4 4 4 4 4 5 5 6 5 5 5 5 4 5 5 4 3 3 2 2 2 2 2 2
1 2 4 7 5 4 4 5 6 5 5 5 7 6 3 1 2 2 3 3 3 3 4 4 4 4 4 5 5 5 4 4 4 5 5 4 3 3 2 1 1 1 1 1
2 2 3 4 4 3 4 6 6 7 8 7 7 6 6 4 3 2 2 3 4 3 3 3 3 3 4 4 3 4 4 4 4 5 4 3 3 2 2 1 0 1 1 1
2 1 2 4 4 3 3 5 7 8 7 7 5 5 3 1 2 2 2 3 3 2 2 2 2 3 3 4 4 4 3 3 4 4 4 3 3 2 1 1 0 1 1 2
1 0 1 3 3 1 4 5 6 5 5 6 9 8 3 2 3 3 3 3 3 2 1 1 1 2 2 3 4 4 3 3 4 4 3 3 3 2 1 1 1 1 2 2
3 2 1 1 1 4 5 2 4 4 2 3 3 3 5 5 3 1 2 3 2 1 1 1 1 1 2 2 3 3 4 4 4 4 3 3 3 2 1 1 1 1 2 2
5 4 2 2 2 4 4 2 0 3 2 2 2 2 3 4 4 3 2 1 2 1 1 1 1 2 2 3 3 5 4 4 4 3 2 2 2 2 1 0 1 1 2 2
2 4 3 2 2 4 4 5 3 2 2 3 2 4 4 4 2 3 2 1 2 2 2 2 2 3 3 2 4 5 4 4 3 2 2 1 2 2 1 1 1 1 2 2
1 1 3 3 3 4 5 6 1 3 4 3 2 4 4 3 3 2 1 2 3 3 3 3 4 4 2 2 5 5 4 2 1 1 2 1 1 1 1 0 1 1 2 2
1 1 1 2 2 4 6 3 1 3 3 1 1 2 3 4 4 4 3 3 4 4 3 3 4 4 3 3 5 5 3 1 2 2 2 2 1 1 1 1 1 1 1 2
1 2 2 2 2 2 2 1 2 2 2 2 1 1 4 4 4 3 3 3 3 3 3 4 5 5 4 4 4 4 2 2 3 3 2 2 2 2 1 1 1 1 1 1
3 2 1 1 2 3 4 5 6 5 4 3 2 3 4 4 4 3 3 3 3 3 3 3 5 5 4 4 4 3 2 3 3 3 2 2 2 2 2 2 1 1 1 1
3 2 1 1 3 4 5 7 6 6 6 6 6 4 4 5 4 3 3 3 3 3 3 3 4 4 4 4 4 3 3 3 3 3 2 2 2 1 2 2 2 2 1 2
2 1 1 3 3 2 3 4 5 5 5 5 5 6 5 3 4 4 3 2 3 3 3 4 4 4 3 3 3 3 3 3 3 2 2 1 1 1 2 2 3 5 4 6
Wind_Direction
176 178 206 204 201 197 172 175 207 225 216 188 219 238 246 239 220 219 215 209 209 212 207 191 183 174 169 168 168 168 164 164 157 155 156 158 175 183 183 180 172 164 159 150
169 225 218 195 197 213 219 217 228 266 246 202 234 252 253 240 226 219 216 213 210 207 195 190 181 175 174 174 174 171 171 169 169 170 170 170 168 183 196 190 184 181 171 169
202 221 192 195 204 208 225 217 212 216 292 294 281 284 259 251 231 226 217 211 207 200 194 189 182 181 177 178 177 177 175 172 170 160 142 125 100 80 102 204 227 229 198 188
224 234 200 199 209 198 228 215 200 196 189 248 187 262 271 245 246 234 225 216 213 205 195 187 182 181 182 183 178 173 172 172 169 160 160 162 169 184 210 207 217 235 209 197
223 209 200 209 210 192 207 176 179 189 185 250 229 226 274 247 239 238 229 220 215 205 192 187 184 183 181 177 173 171 168 171 169 168 168 170 178 190 188 186 202 227 239 218
238 237 209 205 203 191 158 109 82 70 113 241 217 201 264 228 220 228 226 221 209 196 186 182 178 171 170 168 167 168 169 174 173 172 173 176 178 179 173 190 203 223 245 253
253 259 236 167 143 165 158 140 138 185 216 239 204 202 246 245 230 220 220 216 202 184 176 171 168 168 169 168 169 170 171 176 177 178 181 184 184 183 188 194 202 212 234 253
184 236 223 198 178 176 189 168 171 185 204 242 194 220 249 265 260 231 211 199 177 174 172 172 174 172 171 171 171 171 175 177 180 183 187 186 185 189 198 200 203 212 226 237
187 229 271 227 189 155 167 195 169 143 158 201 235 260 295 288 333 157 152 149 165 171 171 170 169 168 169 172 175 176 175 178 182 185 183 186 188 192 201 203 203 214 230 241
165 224 280 276 137 190 166 153 139 161 175 218 242 238 233 227 217 196 160 154 151 145 153 159 163 166 170 174 173 171 173 179 182 181 183 190 193 197 200 199 209 216 229 236
140 185 290 16 192 184 162 170 169 168 182 178 211 250 231 211 201 189 187 171 154 145 146 154 158 160 160 156 157 164 170 169 173 177 177 178 189 193 195 204 215 217 227 235
151 140 221 250 268 209 193 183 162 175 214 194 186 258 309 214 182 159 149 132 127 126 130 137 139 134 135 144 153 162 168 171 178 173 164 169 177 179 189 209 222 217 228 239
151 133 100 348 324 326 209 210 184 161 150 177 184 245 338 62 83 109 119 116 110 107 109 107 121 136 144 150 154 160 166 171 169 160 155 154 161 171 187 213 223 220 231 259
359 168 200 205 221 194 211 219 198 170 192 209 216 224 275 330 97 93 97 107 106 104 110 114 129 144 149 151 153 156 161 161 154 148 147 153 167 174 186 201 215 222 240 269
70 231 256 274 266 212 221 223 206 203 201 202 218 217 234 224 191 153 120 110 102 96 97 112 132 145 144 144 149 154 157 153 149 144 147 159 160 151 147 142 64 351 340 318
35 233 270 286 275 242 254 236 216 223 217 215 217 248 260 216 117 101 120 124 119 120 116 105 113 129 147 158 159 154 153 149 141 143 151 144 132 126 127 120 37 10 354 339
301 179 225 263 292 332 262 232 209 209 209 191 217 229 198 164 155 171 171 151 151 159 136 126 134 150 158 164 156 152 155 137 133 139 137 134 130 129 133 88 36 350 335 335
199 199 215 245 31 228 247 267 189 184 215 217 207 188 178 177 176 154 150 152 152 158 151 153 136 121 124 126 124 129 124 125 128 128 127 130 132 136 131 90 359 326 319 319
199 183 183 177 215 271 301 343 156 182 258 277 185 152 133 130 87 13 357 126 170 178 157 169 154 132 119 122 124 116 108 113 118 122 132 145 143 142 133 106 306 315 320 324
150 161 168 176 187 234 282 302 291 148 272 302 187 165 152 128 144 249 303 69 78 75 86 104 97 95 101 112 118 113 112 110 117 136 150 146 140 146 162 221 285 316 320 317
38 166 198 206 222 262 307 314 45 159 244 293 193 175 162 173 189 189 94 68 74 67 61 75 86 88 96 113 115 114 111 121 138 108 96 92 102 138 169 310 322 330 334 331
167 157 208 185 211 262 332 18 132 243 306 349 95 128 122 102 91 86 86 80 73 61 57 70 85 75 60 85 109 107 103 101 90 89 76 58 40 36 42 37 347 335 333 335
210 220 211 196 212 299 350 357 326 332 345 351 21 100 118 108 98 86 77 79 70 66 65 70 89 80 56 56 93 105 91 85 89 86 73 49 32 28 26 38 346 337 347 346
314 335 136 230 303 335 360 8 4 9 11 14 56 93 109 111 110 97 85 74 73 71 70 76 86 84 64 50 60 79 82 86 94 88 67 52 46 24 13 14 6 345 326 318
306 331 7 292 315 358 5 1 4 20 34 44 47 54 88 108 106 101 84 66 71 66 60 76 89 88 73 62 57 52 60 82 86 78 63 43 35 32 20 13 357 336 311 297
339 305 226 249 269 276 300 329 353 22 30 37 52 48 44 76 102 91 82 70 74 74 69 75 77 78 70 68 62 47 53 77 91 82 60 46 41 30 26 18 4 2 352 349
Height
1458 1463 1461 1459 1461 1462 1465 1468 1469 1467 1465 1467 1468 1466 1462 1461 1463 1463 1463 1464 1466 1468 1472 1476 1480 1483 1486 1489 1492 1494 1497 1499 1501 1503 1504 1505 1506 1508 1509 1509 1510 1510 1510 1510
1460 1459 1454 1457 1459 1462 1464 1467 1468 1466 1464 1466 1467 1464 1459 1458 1457 1457 1457 1459 1461 1464 1468 1472 1475 1478 1481 1484 1487 1491 1493 1496 1498 1500 1501 1503 1504 1505 1506 1507 1507 1508 1507 1507
1454 1451 1451 1455 1458 1461 1462 1465 1466 1467 1465 1464 1467 1465 1458 1453 1452 1452 1452 1453 1455 1458 1461 1466 1469 1473 1476 1480 1483 1486 1489 1492 1495 1497 1499 1501 1502 1502 1503 1504 1504 1505 1505 1505
1451 1448 1449 1452 1454 1457 1461 1458 1461 1464 1470 1473 1470 1474 1458 1452 1450 1448 1447 1448 1450 1453 1456 1460 1464 1468 1471 1475 1479 1483 1486 1489 1491 1494 1495 1496 1497 1498 1499 1500 1501 1502 1502 1502
1448 1445 1446 1448 1448 1452 1455 1455 1459 1463 1469 1474 1472 1475 1459 1451 1448 1443 1441 1442 1444 1447 1450 1454 1458 1463 1467 1471 1475 1479 1482 1485 1488 1490 1492 1493 1494 1496 1497 1497 1498 1498 1499 1499
1445 1443 1443 1443 1445 1448 1452 1457 1462 1468 1473 1477 1469 1472 1459 1449 1440 1437 1436 1437 1439 1442 1446 1450 1455 1459 1464 1468 1472 1475 1478 1481 1484 1486 1488 1490 1491 1492 1493 1494 1494 1495 1495 1495
1446 1443 1441 1440 1444 1447 1450 1460 1471 1476 1480 1474 1463 1464 1452 1437 1434 1432 1433 1433 1435 1438 1442 1446 1450 1455 1459 1463 1467 1471 1474 1477 1480 1482 1485 1486 1488 1489 1490 1490 1491 1491 1491 1491
1449 1448 1441 1439 1440 1444 1448 1452 1464 1471 1471 1467 1461 1460 1445 1433 1430 1429 1430 1431 1433 1435 1439 1442 1446 1451 1455 1459 1463 1467 1470 1473 1476 1479 1481 1483 1485 1486 1487 1488 1488 1488 1488 1488
1448 1446 1439 1438 1438 1440 1446 1449 1451 1460 1464 1465 1460 1452 1441 1432 1430 1429 1429 1430 1431 1434 1437 1440 1444 1448 1452 1456 1460 1463 1466 1470 1473 1475 1478 1480 1481 1483 1484 1485 1485 1485 1486 1486
1444 1447 1441 1439 1437 1439 1441 1445 1453 1457 1460 1457 1452 1449 1443 1433 1431 1431 1431 1431 1432 1434 1436 1439 1442 1446 1450 1454 1457 1461 1464 1466 1469 1472 1474 1476 1478 1480 1481 1481 1482 1482 1482 1482
1443 1448 1445 1442 1440 1440 1443 1445 1447 1452 1454 1454 1453 1446 1431 1430 1429 1430 1431 1431 1432 1434 1436 1438 1442 1445 1449 1452 1455 1458 1461 1464 1467 1469 1471 1473 1475 1476 1477 1478 1478 1479 1479 1479
1443 1448 1450 1446 1442 1440 1440 1440 1445 1450 1452 1453 1451 1446 1428 1429 1428 1429 1431 1432 1434 1435 1437 1439 1442 1445 1448 1450 1453 1456 1459 1462 1464 1466 1468 1470 1472 1473 1474 1475 1475 1475 1475 1475
1442 1448 1451 1448 1447 1444 1443 1442 1442 1446 1449 1453 1450 1442 1430 1429 1429 1430 1431 1433 1434 1436 1438 1440 1442 1444 1447 1449 1452 1455 1457 1460 1462 1464 1465 1467 1468 1470 1471 1472 1472 1472 1472 1472
1440 1446 1446 1444 1440 1441 1442 1441 1440 1442 1446 1447 1443 1438 1433 1432 1432 1432 1433 1434 1436 1437 1438 1440 1442 1444 1447 1449 1451 1453 1456 1458 1460 1461 1463 1464 1465 1467 1468 1469 1469 1469 1469 1469
1441 1445 1443 1439 1437 1437 1436 1436 1437 1438 1438 1440 1436 1436 1433 1433 1433 1434 1434 1435 1436 1438 1439 1441 1442 1444 1446 1448 1450 1452 1454 1456 1458 1459 1461 1462 1463 1465 1466 1466 1466 1466 1466 1466
1443 1444 1442 1438 1434 1434 1434 1433 1434 1434 1434 1434 1434 1435 1432 1432 1433 1434 1435 1436 1437 1438 1439 1441 1442 1443 1445 1447 1449 1451 1453 1455 1456 1457 1459 1460 1461 1462 1463 1464 1464 1464 1463 1463
1445 1445 1444 1441 1436 1433 1435 1431 1432 1432 1431 1431 1432 1431 1431 1433 1433 1434 1435 1436 1437 1438 1439 1440 1441 1443 1444 1446 1448 1449 1451 1453 1454 1456 1457 1458 1459 1460 1461 1461 1461 1461 1461 1460
1443 1445 1446 1443 1441 1439 1430 1426 1426 1428 1428 1427 1427 1427 1428 1430 1432 1433 1434 1435 1436 1437 1439 1440 1441 1442 1444 1445 1447 1448 1450 1451 1453 1454 1455 1456 1457 1458 1459 1459 1459 1459 1458 1458
1438 1442 1445 1446 1443 1435 1429 1427 1427 1429 1429 1427 1427 1427 1428 1429 1431 1433 1434 1435 1436 1437 1438 1439 1440 1442 1443 1444 1446 1447 1448 1450 1451 1452 1454 1455 1456 1456 1457 1457 1457 1457 1456 1456
1437 1440 1444 1444 1440 1436 1431 1426 1425 1427 1430 1426 1425 1426 1428 1428 1434 1435 1434 1434 1435 1436 1437 1439 1439 1441 1442 1443 1445 1446 1447 1449 1450 1451 1452 1453 1454 1455 1455 1455 1455 1455 1454 1453
1440 1440 1441 1441 1440 1435 1431 1426 1424 1432 1430 1425 1424 1425 1426 1428 1430 1432 1433 1433 1434 1435 1436 1438 1438 1439 1441 1442 1444 1445 1446 1447 1449 1450 1451 1452 1452 1453 1453 1453 1453 1453 1452 1450
1442 1443 1442 1440 1439 1439 1432 1429 1430 1430 1426 1424 1424 1425 1426 1427 1429 1430 1431 1432 1433 1434 1435 1437 1437 1438 1440 1441 1443 1443 1445 1446 1447 1448 1449 1450 1451 1451 1451 1451 1451 1450 1449 1447
1441 1441 1439 1440 1440 1436 1433 1431 1430 1428 1426 1425 1425 1426 1426 1427 1429 1430 1432 1433 1434 1434 1435 1436 1437 1438 1439 1440 1442 1443 1444 1445 1446 1447 1448 1449 1449 1449 1449 1449 1448 1447 1446 1444
1441 1439 1439 1439 1436 1435 1433 1431 1430 1428 1427 1426 1426 1426 1427 1428 1429 1431 1432 1433 1434 1434 1435 1436 1437 1437 1439 1440 1441 1442 1443 1444 1445 1446 1446 1447 1447 1447 1447 1446 1446 1444 1443 1442
1443 1441 1440 1439 1437 1435 1433 1433 1432 1430 1429 1428 1427 1428 1428 1428 1430 1431 1432 1433 1434 1434 1435 1436 1437 1437 1438 1439 1440 1442 1442 1443 1444 1444 1445 1445 1445 1445 1444 1444 1443 1442 1441 1439
1445 1444 1443 1440 1438 1437 1436 1434 1433 1431 1430 1429 1428 1428 1429 1430 1430 1431 1432 1433 1434 1434 1435 1436 1437 1437 1438 1439 1440 1441 1441 1442 1442 1442 1443 1443 1443 1443 1442 1441 1441 1440 1439 1437